• In Belgium
  • List of Countries
  • For 7 days
  • Water Temperature
  • Satellite Maps
  • Weather Map
  • Weather Widgets
  • user-avatar
    Login

    Hourly Weather Kannapolis

    Today, 21 June, Thursday

    Time Temperature Precipitation Wind Pressure Humidity
    00:00 +25°C° 0 mm 1 mps 737 mmHg 84%
    01:00 +25°C° 0 mm 1 mps 737 mmHg 85%
    02:00 +24°C° 0 mm 1 mps 737 mmHg 86%
    03:00 +24°C° 0 mm 1 mps 737 mmHg 87%
    04:00 +24°C° 0 mm 1 mps 737 mmHg 87%
    05:00 +24°C° 0 mm 1 mps 737 mmHg 85%
    06:00 +25°C° 0 mm 1 mps 737 mmHg 83%
    07:00 +26°C° 0 mm 1 mps 737 mmHg 80%
    08:00 +28°C° 0 mm 1 mps 737 mmHg 71%
    09:00 +30°C° 0 mm 1 mps 737 mmHg 62%
    10:00 +32°C° 0 mm 2 mps 737 mmHg 53%
    11:00 +34°C° 0 mm 2 mps 737 mmHg 50%
    12:00 +35°C° 0 mm 2 mps 737 mmHg 46%
    13:00 +36°C° 0 mm 2 mps 737 mmHg 43%
    14:00 +36°C° 0.1 mm 2 mps 736 mmHg 46%
    15:00 +35°C° 0.1 mm 2 mps 736 mmHg 49%
    16:00 +35°C° 0.1 mm 2 mps 736 mmHg 52%
    17:00 +32°C° 0.2 mm 2 mps 736 mmHg 60%
    18:00 +30°C° 0.2 mm 2 mps 736 mmHg 69%
    19:00 +28°C° 0.2 mm 2 mps 736 mmHg 78%
    20:00 +27°C° 0.2 mm 2 mps 736 mmHg 79%
    21:00 +26°C° 0.2 mm 2 mps 736 mmHg 81%
    22:00 +26°C° 0.2 mm 2 mps 737 mmHg 82%
    23:00 +25°C° 0.1 mm 2 mps 737 mmHg 82%

    Tomorrow, 22 June, Friday

    Time Temperature Precipitation Wind Pressure Humidity
    00:00 +25°C° 0.1 mm 2 mps 736 mmHg 82%
    01:00 +25°C° 0.1 mm 2 mps 736 mmHg 82%
    02:00 +24°C° 0 mm 2 mps 736 mmHg 83%
    03:00 +24°C° 0 mm 2 mps 736 mmHg 85%
    04:00 +23°C° 0 mm 1 mps 736 mmHg 87%
    05:00 +24°C° 0.2 mm 1 mps 736 mmHg 87%
    06:00 +24°C° 0.2 mm 1 mps 737 mmHg 87%
    07:00 +25°C° 0.2 mm 1 mps 737 mmHg 88%
    08:00 +26°C° 0 mm 2 mps 737 mmHg 81%
    09:00 +28°C° 0 mm 2 mps 737 mmHg 74%
    10:00 +29°C° 0 mm 3 mps 737 mmHg 68%
    11:00 +32°C° 0.1 mm 4 mps 737 mmHg 62%
    12:00 +33°C° 0.1 mm 4 mps 737 mmHg 56%
    13:00 +35°C° 0.1 mm 5 mps 736 mmHg 51%
    14:00 +35°C° 0 mm 5 mps 736 mmHg 51%
    15:00 +35°C° 0 mm 5 mps 736 mmHg 51%
    16:00 +35°C° 0 mm 5 mps 735 mmHg 51%
    17:00 +33°C° 0 mm 4 mps 735 mmHg 55%
    18:00 +32°C° 0 mm 4 mps 735 mmHg 59%
    19:00 +30°C° 0 mm 3 mps 735 mmHg 62%
    20:00 +29°C° 0 mm 3 mps 736 mmHg 65%
    21:00 +28°C° 0 mm 3 mps 736 mmHg 68%
    22:00 +27°C° 0 mm 3 mps 736 mmHg 70%
    23:00 +26°C° 0 mm 3 mps 736 mmHg 71%

    Day after tomorrow, 23 June, Saturday

    Time Temperature Precipitation Wind Pressure Humidity
    00:00 +25°C° 0 mm 3 mps 736 mmHg 71%
    01:00 +25°C° 0 mm 2 mps 736 mmHg 72%
    02:00 +24°C° 0 mm 2 mps 736 mmHg 73%
    03:00 +24°C° 0 mm 2 mps 736 mmHg 75%
    04:00 +24°C° 0 mm 2 mps 736 mmHg 76%
    05:00 +24°C° 0 mm 3 mps 736 mmHg 75%
    06:00 +25°C° 0 mm 3 mps 737 mmHg 74%
    07:00 +26°C° 0 mm 4 mps 737 mmHg 74%
    08:00 +28°C° 0 mm 4 mps 737 mmHg 67%
    09:00 +30°C° 0 mm 5 mps 737 mmHg 60%
    10:00 +33°C° 0 mm 5 mps 737 mmHg 53%
    11:00 +34°C° 0 mm 5 mps 737 mmHg 50%
    12:00 +35°C° 0 mm 5 mps 737 mmHg 47%
    13:00 +36°C° 0 mm 5 mps 737 mmHg 43%
    14:00 +35°C° 0 mm 5 mps 737 mmHg 45%
    15:00 +35°C° 0 mm 5 mps 736 mmHg 46%
    16:00 +35°C° 0 mm 5 mps 736 mmHg 48%
    17:00 +34°C° 0 mm 4 mps 736 mmHg 52%
    18:00 +33°C° 0 mm 3 mps 736 mmHg 56%
    19:00 +31°C° 0 mm 2 mps 736 mmHg 60%
    20:00 +30°C° 0 mm 2 mps 737 mmHg 62%
    21:00 +29°C° 0 mm 2 mps 737 mmHg 64%
    22:00 +28°C° 0 mm 2 mps 738 mmHg 66%
    23:00 +27°C° 0.2 mm 2 mps 738 mmHg 71%

    24 June, Sunday

    Time Temperature Precipitation Wind Pressure Humidity
    00:00 +27°C° 0.2 mm 2 mps 738 mmHg 75%
    01:00 +26°C° 0.2 mm 2 mps 738 mmHg 79%
    02:00 +25°C° 0 mm 2 mps 738 mmHg 81%
    03:00 +24°C° 0 mm 2 mps 738 mmHg 82%
    04:00 +24°C° 0 mm 1 mps 738 mmHg 84%
    05:00 +25°C° 0 mm 1 mps 739 mmHg 82%
    06:00 +25°C° 0 mm 1 mps 739 mmHg 80%
    07:00 +26°C° 0 mm 1 mps 739 mmHg 77%
    08:00 +28°C° 0 mm 1 mps 740 mmHg 69%
    09:00 +30°C° 0 mm 2 mps 740 mmHg 60%
    10:00 +34°C° 0 mm 2 mps 740 mmHg 52%
    11:00 +35°C° 0 mm 2 mps 740 mmHg 48%
    12:00 +36°C° 0 mm 3 mps 740 mmHg 45%
    13:00 +37°C° 0 mm 3 mps 740 mmHg 41%
    14:00 +37°C° 0 mm 3 mps 739 mmHg 41%
    15:00 +37°C° 0 mm 3 mps 739 mmHg 42%
    16:00 +37°C° 0 mm 3 mps 738 mmHg 42%
    17:00 +36°C° 0.7 mm 3 mps 739 mmHg 49%
    18:00 +34°C° 0.7 mm 3 mps 739 mmHg 55%
    19:00 +31°C° 0.7 mm 2 mps 739 mmHg 62%
    20:00 +29°C° 6.6 mm 2 mps 739 mmHg 70%
    21:00 +27°C° 6.6 mm 2 mps 740 mmHg 79%
    22:00 +25°C° 6.6 mm 1 mps 740 mmHg 87%
    23:00 +24°C° 0.1 mm 1 mps 740 mmHg 87%

    25 June, Monday

    Time Temperature Precipitation Wind Pressure Humidity
    00:00 +24°C° 0.1 mm 1 mps 740 mmHg 87%
    01:00 +24°C° 0.1 mm 1 mps 740 mmHg 87%
    02:00 +24°C° 0 mm 1 mps 740 mmHg 88%
    03:00 +23°C° 0 mm 1 mps 740 mmHg 89%
    04:00 +23°C° 0 mm 1 mps 740 mmHg 90%
    05:00 +24°C° 0.1 mm 1 mps 740 mmHg 89%
    06:00 +25°C° 0.1 mm 1 mps 741 mmHg 87%
    07:00 +25°C° 0.1 mm 1 mps 741 mmHg 86%
    08:00 +27°C° 0 mm 1 mps 741 mmHg 77%
    09:00 +30°C° 0 mm 1 mps 742 mmHg 68%
    10:00 +32°C° 0 mm 1 mps 742 mmHg 59%
    11:00 +33°C° 0.1 mm 1 mps 742 mmHg 54%
    12:00 +35°C° 0.1 mm 1 mps 742 mmHg 49%
    13:00 +36°C° 0.1 mm 1 mps 741 mmHg 44%
    14:00 +35°C° 0.1 mm 1 mps 741 mmHg 46%
    15:00 +35°C° 0.1 mm 1 mps 741 mmHg 48%
    16:00 +34°C° 0.1 mm 1 mps 740 mmHg 50%
    17:00 +33°C° 0.3 mm 1 mps 741 mmHg 56%
    18:00 +31°C° 0.3 mm 2 mps 741 mmHg 61%
    19:00 +30°C° 0.3 mm 2 mps 741 mmHg 67%
    20:00 +28°C° 2.7 mm 3 mps 742 mmHg 75%
    21:00 +27°C° 2.7 mm 3 mps 742 mmHg 83%
    22:00 +25°C° 2.7 mm 4 mps 742 mmHg 90%
    23:00 +25°C° 3.1 mm 4 mps 742 mmHg 92%

    26 June, Tuesday

    Time Temperature Precipitation Wind Pressure Humidity
    00:00 +24°C° 3.1 mm 3 mps 742 mmHg 93%
    01:00 +24°C° 3.1 mm 3 mps 742 mmHg 95%
    02:00 +24°C° 0.5 mm 3 mps 742 mmHg 95%
    03:00 +23°C° 0.5 mm 4 mps 742 mmHg 95%
    04:00 +22°C° 0.5 mm 4 mps 742 mmHg 95%
    05:00 +22°C° 0.3 mm 4 mps 743 mmHg 94%
    06:00 +22°C° 0.3 mm 4 mps 743 mmHg 92%
    07:00 +21°C° 0.3 mm 4 mps 743 mmHg 91%
    08:00 +23°C° 0 mm 4 mps 744 mmHg 84%
    09:00 +25°C° 0 mm 4 mps 744 mmHg 78%
    10:00 +26°C° 0 mm 4 mps 744 mmHg 72%
    11:00 +26°C° 0 mm 4 mps 744 mmHg 70%
    12:00 +27°C° 0 mm 4 mps 744 mmHg 69%
    13:00 +28°C° 0 mm 4 mps 743 mmHg 67%
    14:00 +28°C° 0 mm 4 mps 743 mmHg 66%
    15:00 +28°C° 0 mm 4 mps 743 mmHg 65%
    16:00 +29°C° 0 mm 4 mps 743 mmHg 64%
    17:00 +28°C° 0 mm 3 mps 743 mmHg 68%
    18:00 +27°C° 0 mm 3 mps 743 mmHg 73%
    19:00 +26°C° 0 mm 2 mps 743 mmHg 77%
    20:00 +25°C° 0 mm 2 mps 743 mmHg 80%
    21:00 +24°C° 0 mm 2 mps 744 mmHg 84%
    22:00 +23°C° 0 mm 2 mps 744 mmHg 88%
    23:00 +23°C° 0 mm 2 mps 744 mmHg 90%
    Show more